Home > Weather > Coventry > Past weeks

Flag for United Kingdom Past Weather in Coventry, England, United Kingdom — Yesterday and Last 2 Weeks

Now
52 °F

Passing clouds.


Feels Like: 51 °F
Forecast: 47 / 66 °F
Wind: 3 mph from East

Location: Coventry Airport

Current Time: May 28, 2016 at 5:10:17 AM

Latest Report: May 28, 2016 at 1:50 AM


Visibility: N/A

Pressure: 30.07 "Hg

Humidity: 77%

Dew Point: 45 °F

Location of CoventryLocation

Past Weather in Coventry — Graph

°F

Coventry Temperature Yesterday

Maximum temperature yesterday: 66 °F (at 3:20 PM)
Minimum temperature yesterday: 50 °F (at 12:20 AM)
Average temperature yesterday: 59 °F

High & Low Weather Summary for the Past Weeks

 TemperatureHumidityPressure
High66 °F (May 27, 3:20 PM)94% (May 18, 10:20 AM)30.21 "Hg (May 18, 10:20 AM)
Low46 °F (May 14, 8:20 AM)40% (May 16, 5:20 PM)29.56 "Hg (May 18, 12:50 PM)
Average56 °F68%29.97 "Hg
* Reported May 13 1:20 AM — May 28 1:50 AM, Coventry, Weather by CustomWeather, © 2016

Note: Actual official high and low records may vary slightly from our data, if they occured in-between our weather recording intervals... More about our weather records

Advertising

Coventry Weather History for the Previous 24 Hours

Scroll right to see more
 ConditionsComfort  
Time TempWeatherWind HumidityBarometerVisibility
1:50 AM
Sat, May 28
52 °FPassing clouds.3 mph77%30.07 "HgN/A
1:20 AM52 °FClear.5 mph77%30.07 "Hg10 mi
12:50 AM52 °FClear.7 mph77%30.07 "Hg10 mi
12:20 AM52 °FClear.6 mph77%30.07 "Hg10 mi
11:50 PM
Fri, May 27
52 °FClear.7 mph77%30.07 "Hg10 mi
11:20 PM52 °FClear.8 mph77%30.07 "Hg10 mi
10:50 PM54 °FClear.7 mph77%30.07 "Hg10 mi
10:20 PM54 °FClear.8 mph77%30.07 "Hg10 mi
9:50 PM55 °FSunny.8 mph72%30.07 "Hg10 mi
9:20 PM57 °FSunny.7 mph67%30.04 "Hg10 mi
8:50 PM59 °FSunny.9 mph63%30.04 "Hg10 mi
8:20 PM61 °FSunny.9 mph63%30.04 "Hg10 mi
7:50 PM63 °FPassing clouds.9 mph59%30.04 "HgN/A
7:20 PM63 °FPassing clouds.10 mph59%30.04 "HgN/A
6:50 PM64 °FPassing clouds.9 mph56%30.04 "HgN/A
6:20 PM64 °FPassing clouds.12 mph56%30.01 "HgN/A
5:50 PM66 °FPassing clouds.10 mph52%30.01 "HgN/A
4:50 PM64 °FScattered clouds.8 mph52%30.04 "HgN/A
4:20 PM64 °FPassing clouds.9 mph56%30.04 "HgN/A
3:50 PM66 °FPassing clouds.9 mph52%30.04 "HgN/A
3:20 PM66 °FPassing clouds.10 mph52%30.04 "HgN/A
2:50 PM64 °FPassing clouds.9 mph56%30.04 "HgN/A
2:20 PM64 °FPassing clouds.10 mph56%30.04 "HgN/A
1:50 PM64 °FPassing clouds.12 mph56%30.04 "HgN/A
1:20 PM63 °FPassing clouds.9 mph59%30.07 "HgN/A
12:50 PM63 °FPassing clouds.9 mph59%30.07 "HgN/A
12:20 PM63 °FPassing clouds.10 mph59%30.07 "HgN/A
11:50 AM63 °FPassing clouds.10 mph59%30.07 "HgN/A
11:20 AM61 °FPassing clouds.10 mph63%30.07 "HgN/A
10:50 AM61 °FPassing clouds.12 mph63%30.07 "HgN/A
10:20 AM59 °FPassing clouds.12 mph68%30.07 "HgN/A
9:50 AM59 °FPassing clouds.6 mph72%30.07 "HgN/A
9:20 AM57 °FSunny.6 mph72%30.07 "Hg10 mi
8:50 AM55 °FSunny.6 mph72%30.07 "Hg10 mi
8:20 AM54 °FPassing clouds.6 mph77%30.07 "HgN/A
7:50 AM52 °FPassing clouds.6 mph82%30.07 "HgN/A
7:20 AM50 °FPassing clouds.5 mph88%30.07 "HgN/A
6:50 AM50 °FPassing clouds.3 mph88%30.07 "HgN/A
Weather by CustomWeather, © 2016

See weather overviewHow to use our weather pages